Time,TemperatureF,DewpointF,PressureIn,WindDirection,WindDirectionDegrees,WindSpeedMPH,WindSpeedGustMPH,Humidity,HourlyPrecipIn,Conditions,Clouds,dailyrainin,SoftwareType,DateUTC
2013-03-21 00:03:00,45.0,19.0,29.71,WNW,298,6.0,10.0,35,0.00,,,0.00,,2013-03-21 06:03:00,
2013-03-21 00:12:00,45.0,19.0,29.71,WNW,298,6.0,10.0,35,0.00,,,0.00,,2013-03-21 06:12:00,
2013-03-21 00:22:00,41.0,21.0,29.70,WNW,292,3.0,6.0,45,0.00,,,0.00,,2013-03-21 06:22:00,
2013-03-21 00:32:00,40.0,20.0,29.70,WNW,292,2.0,3.0,44,0.00,,,0.00,,2013-03-21 06:32:00,
2013-03-21 00:42:00,40.0,20.0,29.70,WNW,292,2.0,3.0,44,0.00,,,0.00,,2013-03-21 06:42:00,
2013-03-21 00:52:00,40.0,22.0,29.70,WNW,292,2.0,4.0,48,0.00,,,0.00,,2013-03-21 06:52:00,
2013-03-21 01:02:00,39.0,20.0,29.70,SW,228,3.0,5.0,47,0.00,,,0.00,,2013-03-21 07:02:00,
2013-03-21 01:12:00,39.0,20.0,29.70,SW,228,3.0,5.0,47,0.00,,,0.00,,2013-03-21 07:12:00,
2013-03-21 01:22:00,43.0,20.0,29.68,NNW,327,3.0,6.0,40,0.00,,,0.00,,2013-03-21 07:22:00,
2013-03-21 01:32:00,45.0,21.0,29.68,WNW,298,1.0,5.0,38,0.00,,,0.00,,2013-03-21 07:32:00,
2013-03-21 01:42:00,45.0,21.0,29.68,WNW,298,1.0,5.0,38,0.00,,,0.00,,2013-03-21 07:42:00,
2013-03-21 01:52:00,43.0,22.0,29.68,WNW,298,0.0,4.0,42,0.00,,,0.00,,2013-03-21 07:52:00,
2013-03-21 02:02:00,42.0,22.0,29.66,NW,325,3.0,5.0,44,0.00,,,0.00,,2013-03-21 08:02:00,
2013-03-21 02:13:00,42.0,22.0,29.66,NW,325,3.0,5.0,44,0.00,,,0.00,,2013-03-21 08:13:00,
2013-03-21 02:23:00,43.0,22.0,29.66,NNW,327,0.0,5.0,42,0.00,,,0.00,,2013-03-21 08:23:00,
2013-03-21 02:33:00,41.0,21.0,29.67,NNW,328,0.0,4.0,45,0.00,,,0.00,,2013-03-21 08:33:00,
2013-03-21 02:42:00,41.0,21.0,29.67,NNW,328,0.0,4.0,45,0.00,,,0.00,,2013-03-21 08:42:00,
2013-03-21 02:52:00,40.0,21.0,29.67,NNW,327,1.0,4.0,46,0.00,,,0.00,,2013-03-21 08:52:00,
2013-03-21 03:02:00,37.0,21.0,29.66,NNW,327,2.0,3.0,52,0.00,,,0.00,,2013-03-21 09:02:00,
2013-03-21 03:11:00,37.0,21.0,29.66,NNW,327,2.0,3.0,52,0.00,,,0.00,,2013-03-21 09:11:00,
2013-03-21 03:21:00,39.0,22.0,29.66,NNW,327,0.0,5.0,51,0.00,,,0.00,,2013-03-21 09:21:00,
2013-03-21 03:33:00,40.0,21.0,29.65,NNW,327,0.0,3.0,46,0.00,,,0.00,,2013-03-21 09:33:00,
2013-03-21 03:43:00,40.0,21.0,29.65,NNW,327,0.0,3.0,46,0.00,,,0.00,,2013-03-21 09:43:00,
2013-03-21 03:53:00,39.0,21.0,29.64,NNW,327,0.0,3.0,48,0.00,,,0.00,,2013-03-21 09:53:00,
2013-03-21 04:02:00,39.0,21.0,29.63,NNW,327,0.0,2.0,49,0.00,,,0.00,,2013-03-21 10:02:00,
2013-03-21 04:12:00,39.0,21.0,29.63,NNW,327,0.0,2.0,49,0.00,,,0.00,,2013-03-21 10:12:00,
2013-03-21 04:22:00,39.0,21.0,29.63,NNW,327,0.0,2.0,49,0.00,,,0.00,,2013-03-21 10:22:00,
2013-03-21 04:33:00,40.0,21.0,29.63,NNW,328,0.0,1.0,47,0.00,,,0.00,,2013-03-21 10:33:00,
2013-03-21 04:42:00,40.0,21.0,29.63,NNW,328,0.0,1.0,47,0.00,,,0.00,,2013-03-21 10:42:00,
2013-03-21 04:53:00,40.0,22.0,29.63,NNW,329,0.0,1.0,48,0.00,,,0.00,,2013-03-21 10:53:00,
2013-03-21 05:03:00,38.0,23.0,29.62,NNW,329,0.0,3.0,54,0.00,,,0.00,,2013-03-21 11:03:00,
2013-03-21 05:12:00,38.0,23.0,29.62,NNW,329,0.0,3.0,54,0.00,,,0.00,,2013-03-21 11:12:00,
2013-03-21 05:22:00,38.0,22.0,29.61,NNW,329,0.0,2.0,53,0.00,,,0.00,,2013-03-21 11:22:00,
2013-03-21 05:33:00,38.0,24.0,29.59,NNW,328,1.0,3.0,57,0.00,,,0.00,,2013-03-21 11:33:00,
2013-03-21 05:43:00,38.0,24.0,29.59,NNW,328,1.0,3.0,57,0.00,,,0.00,,2013-03-21 11:43:00,
2013-03-21 05:53:00,38.0,24.0,29.59,NNW,328,1.0,3.0,57,0.00,,,0.00,,2013-03-21 11:53:00,
2013-03-21 06:02:00,39.0,23.0,29.59,NNW,330,0.0,2.0,53,0.00,,,0.00,,2013-03-21 12:02:00,
2013-03-21 06:12:00,39.0,23.0,29.59,NNW,330,0.0,2.0,53,0.00,,,0.00,,2013-03-21 12:12:00,
2013-03-21 06:22:00,39.0,23.0,29.59,NNW,331,0.0,2.0,52,0.00,,,0.00,,2013-03-21 12:22:00,
2013-03-21 06:33:00,40.0,22.0,29.58,NW,305,2.0,4.0,49,0.00,,,0.00,,2013-03-21 12:33:00,
2013-03-21 06:42:00,40.0,22.0,29.58,NW,305,2.0,4.0,49,0.00,,,0.00,,2013-03-21 12:42:00,
2013-03-21 06:52:00,44.0,22.0,29.57,NNW,327,1.0,7.0,41,0.00,,,0.00,,2013-03-21 12:52:00,
2013-03-21 07:02:00,40.0,23.0,29.58,ENE,57,1.0,6.0,50,0.00,,,0.00,,2013-03-21 13:02:00,
2013-03-21 07:12:00,40.0,23.0,29.58,ENE,57,1.0,6.0,50,0.00,,,0.00,,2013-03-21 13:12:00,
2013-03-21 07:22:00,40.0,22.0,29.57,NNW,328,1.0,3.0,48,0.00,,,0.00,,2013-03-21 13:22:00,
2013-03-21 07:32:00,42.0,24.0,29.58,NNW,329,0.0,3.0,48,0.00,,,0.00,,2013-03-21 13:32:00,
2013-03-21 07:42:00,42.0,24.0,29.58,NNW,329,0.0,3.0,48,0.00,,,0.00,,2013-03-21 13:42:00,
2013-03-21 07:52:00,40.0,22.0,29.58,NNW,329,0.0,6.0,48,0.00,,,0.00,,2013-03-21 13:52:00,
2013-03-21 08:02:00,36.0,22.0,29.58,NNW,330,0.0,3.0,56,0.00,,,0.00,,2013-03-21 14:02:00,
2013-03-21 08:12:00,36.0,22.0,29.58,NNW,329,0.0,3.0,57,0.00,,,0.00,,2013-03-21 14:12:00,
2013-03-21 08:22:00,36.0,22.0,29.58,NNW,329,0.0,3.0,57,0.00,,,0.00,,2013-03-21 14:22:00,
2013-03-21 08:32:00,37.0,24.0,29.57,NNW,331,0.0,4.0,58,0.00,,,0.00,,2013-03-21 14:32:00,
2013-03-21 08:42:00,37.0,24.0,29.57,NNW,331,0.0,4.0,58,0.00,,,0.00,,2013-03-21 14:42:00,
2013-03-21 08:52:00,38.0,24.0,29.58,NNW,331,0.0,2.0,57,0.00,,,0.00,,2013-03-21 14:52:00,
2013-03-21 09:03:00,39.0,22.0,29.57,NNW,331,0.0,4.0,51,0.00,,,0.00,,2013-03-21 15:03:00,
2013-03-21 09:12:00,39.0,22.0,29.57,NNW,331,0.0,4.0,51,0.00,,,0.00,,2013-03-21 15:12:00,
2013-03-21 09:22:00,40.0,25.0,29.55,NNW,332,0.0,2.0,54,0.00,,,0.00,,2013-03-21 15:22:00,
2013-03-21 09:33:00,41.0,24.0,29.55,NNW,331,0.0,2.0,50,0.00,,,0.00,,2013-03-21 15:33:00,
2013-03-21 09:42:00,41.0,24.0,29.55,NNW,331,0.0,2.0,50,0.00,,,0.00,,2013-03-21 15:42:00,
2013-03-21 09:53:00,41.0,24.0,29.55,NNW,331,0.0,2.0,50,0.00,,,0.00,,2013-03-21 15:53:00,
2013-03-21 10:03:00,40.0,22.0,29.54,North,349,0.0,4.0,48,0.00,,,0.00,,2013-03-21 16:03:00,
2013-03-21 10:12:00,40.0,22.0,29.54,North,349,0.0,4.0,48,0.00,,,0.00,,2013-03-21 16:12:00,
2013-03-21 10:23:00,40.0,23.0,29.54,NE,35,1.0,4.0,51,0.00,,,0.00,,2013-03-21 16:23:00,
2013-03-21 10:33:00,41.0,22.0,29.54,NNW,338,0.0,4.0,47,0.00,,,0.00,,2013-03-21 16:33:00,
2013-03-21 10:42:00,41.0,22.0,29.54,NNW,338,0.0,4.0,47,0.00,,,0.00,,2013-03-21 16:42:00,
2013-03-21 10:52:00,43.0,23.0,29.54,NNE,32,2.0,5.0,44,0.00,,,0.00,,2013-03-21 16:52:00,
2013-03-21 11:02:00,45.0,24.0,29.53,ENE,61,1.0,12.0,43,0.00,,,0.00,,2013-03-21 17:02:00,
2013-03-21 11:12:00,45.0,24.0,29.53,ENE,61,1.0,12.0,43,0.00,,,0.00,,2013-03-21 17:12:00,
2013-03-21 11:23:00,44.0,22.0,29.53,NNE,23,1.0,10.0,41,0.00,,,0.00,,2013-03-21 17:23:00,
2013-03-21 11:32:00,47.0,22.0,29.54,NE,56,0.0,7.0,37,0.00,,,0.00,,2013-03-21 17:32:00,
2013-03-21 11:42:00,47.0,22.0,29.54,NE,56,0.0,7.0,37,0.00,,,0.00,,2013-03-21 17:42:00,
2013-03-21 11:53:00,48.0,24.0,29.54,North,2,4.0,11.0,38,0.00,,,0.00,,2013-03-21 17:53:00,
2013-03-21 12:02:00,49.0,23.0,29.54,NNW,348,6.0,11.0,36,0.00,,,0.00,,2013-03-21 18:02:00,
2013-03-21 12:12:00,49.0,23.0,29.54,NNW,348,6.0,11.0,36,0.00,,,0.00,,2013-03-21 18:12:00,
2013-03-21 12:23:00,51.0,24.0,29.52,ENE,65,3.0,12.0,34,0.00,,,0.00,,2013-03-21 18:23:00,
2013-03-21 12:32:00,53.0,23.0,29.54,East,93,0.0,5.0,31,0.00,,,0.00,,2013-03-21 18:32:00,
2013-03-21 12:42:00,53.0,23.0,29.54,East,93,0.0,5.0,31,0.00,,,0.00,,2013-03-21 18:42:00,
2013-03-21 12:52:00,53.0,22.0,29.54,NNE,32,0.0,14.0,30,0.00,,,0.00,,2013-03-21 18:52:00,
2013-03-21 13:02:00,52.0,22.0,29.54,NE,34,10.0,21.0,30,0.00,,,0.00,,2013-03-21 19:02:00,
2013-03-21 13:12:00,52.0,22.0,29.54,NE,34,10.0,21.0,30,0.00,,,0.00,,2013-03-21 19:12:00,
2013-03-21 13:22:00,50.0,22.0,29.54,North,7,17.0,22.0,33,0.00,,,0.00,,2013-03-21 19:22:00,
2013-03-21 13:32:00,48.0,26.0,29.54,NNW,346,13.0,25.0,42,0.00,,,0.00,,2013-03-21 19:32:00,
2013-03-21 13:42:00,48.0,26.0,29.54,NNW,346,13.0,25.0,42,0.00,,,0.00,,2013-03-21 19:42:00,
2013-03-21 13:53:00,47.0,28.0,29.54,NNW,342,13.0,19.0,47,0.00,,,0.00,,2013-03-21 19:53:00,
2013-03-21 14:02:00,47.0,28.0,29.54,NE,38,8.0,17.0,47,0.00,,,0.00,,2013-03-21 20:02:00,
2013-03-21 14:12:00,47.0,28.0,29.54,NE,38,8.0,17.0,47,0.00,,,0.00,,2013-03-21 20:12:00,
2013-03-21 14:22:00,44.0,30.0,29.56,NNW,342,6.0,21.0,57,0.00,,,0.00,,2013-03-21 20:22:00,
2013-03-21 14:33:00,40.0,33.0,29.58,WNW,288,2.0,11.0,75,0.01,,,0.01,,2013-03-21 20:33:00,
2013-03-21 14:42:00,40.0,33.0,29.58,WNW,288,2.0,11.0,75,0.01,,,0.01,,2013-03-21 20:42:00,
2013-03-21 14:53:00,39.0,33.0,29.58,North,1,2.0,7.0,78,0.01,,,0.01,,2013-03-21 20:53:00,
2013-03-21 15:02:00,41.0,36.0,29.58,North,1,5.0,6.0,82,0.01,,,0.01,,2013-03-21 21:02:00,
2013-03-21 15:12:00,41.0,36.0,29.58,North,1,5.0,6.0,82,0.01,,,0.01,,2013-03-21 21:12:00,
2013-03-21 15:22:00,42.0,34.0,29.57,NNE,15,1.0,8.0,74,0.01,,,0.01,,2013-03-21 21:22:00,
2013-03-21 15:33:00,43.0,31.0,29.57,NNE,25,0.0,6.0,63,0.00,,,0.01,,2013-03-21 21:33:00,
2013-03-21 15:43:00,43.0,31.0,29.57,NNE,25,0.0,6.0,63,0.00,,,0.01,,2013-03-21 21:43:00,
2013-03-21 15:53:00,44.0,33.0,29.57,NNE,25,0.0,2.0,65,0.00,,,0.01,,2013-03-21 21:53:00,
2013-03-21 16:02:00,45.0,33.0,29.56,South,185,3.0,3.0,63,0.00,,,0.01,,2013-03-21 22:02:00,
2013-03-21 16:13:00,45.0,33.0,29.56,South,185,3.0,3.0,63,0.00,,,0.01,,2013-03-21 22:13:00,
2013-03-21 16:23:00,45.0,31.0,29.57,NNE,12,1.0,6.0,57,0.00,,,0.01,,2013-03-21 22:23:00,
2013-03-21 16:33:00,48.0,17.0,29.57,SW,223,3.0,21.0,29,0.00,,,0.01,,2013-03-21 22:33:00,
2013-03-21 16:42:00,48.0,17.0,29.57,SW,223,3.0,21.0,29,0.00,,,0.01,,2013-03-21 22:42:00,
2013-03-21 16:52:00,49.0,25.0,29.57,SW,223,5.0,17.0,39,0.00,,,0.01,,2013-03-21 22:52:00,
2013-03-21 17:02:00,47.0,8.0,29.57,NNW,332,20.0,20.0,20,0.00,,,0.01,,2013-03-21 23:02:00,
2013-03-21 17:12:00,47.0,8.0,29.57,NNW,332,20.0,20.0,20,0.00,,,0.01,,2013-03-21 23:12:00,
2013-03-21 17:22:00,46.0,6.0,29.57,West,275,10.0,20.0,19,0.00,,,0.01,,2013-03-21 23:22:00,
2013-03-21 17:32:00,47.0,6.0,29.61,West,279,2.0,13.0,18,0.00,,,0.01,,2013-03-21 23:32:00,
2013-03-21 17:42:00,47.0,6.0,29.61,West,279,2.0,13.0,18,0.00,,,0.01,,2013-03-21 23:42:00,
2013-03-21 17:52:00,47.0,7.0,29.61,NNW,345,9.0,11.0,19,0.00,,,0.01,,2013-03-21 23:52:00,
2013-03-21 18:02:00,46.0,1.0,29.62,NW,314,5.0,12.0,15,0.00,,,0.01,,2013-03-22 00:02:00,
2013-03-21 18:12:00,46.0,1.0,29.62,NW,314,5.0,12.0,15,0.00,,,0.01,,2013-03-22 00:12:00,
2013-03-21 18:22:00,46.0,4.0,29.62,West,270,1.0,14.0,17,0.00,,,0.01,,2013-03-22 00:22:00,
2013-03-21 18:32:00,45.0,0.0,29.64,WNW,294,7.0,9.0,15,0.00,,,0.01,,2013-03-22 00:32:00,
2013-03-21 18:42:00,45.0,0.0,29.64,WNW,294,7.0,9.0,15,0.00,,,0.01,,2013-03-22 00:42:00,
2013-03-21 18:52:00,44.0,-2.0,29.64,WNW,284,4.0,18.0,14,0.00,,,0.01,,2013-03-22 00:52:00,
2013-03-21 19:02:00,42.0,-5.0,29.67,West,276,12.0,15.0,13,0.00,,,0.01,,2013-03-22 01:02:00,
2013-03-21 19:12:00,42.0,-5.0,29.67,West,276,12.0,15.0,13,0.00,,,0.01,,2013-03-22 01:12:00,
2013-03-21 19:22:00,42.0,-4.0,29.67,WNW,283,6.0,17.0,14,0.00,,,0.01,,2013-03-22 01:22:00,
2013-03-21 19:32:00,41.0,-8.0,29.69,NW,314,9.0,18.0,12,0.00,,,0.01,,2013-03-22 01:32:00,
2013-03-21 19:42:00,41.0,-8.0,29.69,NW,314,9.0,18.0,12,0.00,,,0.01,,2013-03-22 01:42:00,
2013-03-21 19:53:00,41.0,-8.0,29.70,WNW,288,9.0,17.0,12,0.00,,,0.01,,2013-03-22 01:53:00,
2013-03-21 20:02:00,41.0,-8.0,29.71,NNW,332,12.0,18.0,12,0.00,,,0.01,,2013-03-22 02:02:00,
2013-03-21 20:12:00,41.0,-8.0,29.71,NNW,332,12.0,18.0,12,0.00,,,0.01,,2013-03-22 02:12:00,
2013-03-21 20:22:00,40.0,-7.0,29.71,WNW,293,0.0,12.0,13,0.00,,,0.01,,2013-03-22 02:22:00,
2013-03-21 20:32:00,40.0,-4.0,29.71,NW,314,5.0,15.0,15,0.00,,,0.01,,2013-03-22 02:32:00,
2013-03-21 20:42:00,40.0,-4.0,29.71,NW,314,5.0,15.0,15,0.00,,,0.01,,2013-03-22 02:42:00,
2013-03-21 20:53:00,40.0,-3.0,29.72,NNW,338,4.0,12.0,16,0.00,,,0.01,,2013-03-22 02:53:00,
2013-03-21 21:02:00,39.0,-2.0,29.73,NW,318,3.0,19.0,17,0.00,,,0.01,,2013-03-22 03:02:00,
2013-03-21 21:12:00,39.0,-2.0,29.73,NW,318,3.0,19.0,17,0.00,,,0.01,,2013-03-22 03:12:00,
2013-03-21 21:22:00,39.0,-2.0,29.73,WNW,295,12.0,19.0,17,0.00,,,0.01,,2013-03-22 03:22:00,
2013-03-21 21:33:00,38.0,-2.0,29.72,WNW,296,3.0,16.0,18,0.00,,,0.01,,2013-03-22 03:33:00,
2013-03-21 21:43:00,38.0,-2.0,29.72,WNW,296,3.0,16.0,18,0.00,,,0.01,,2013-03-22 03:43:00,
2013-03-21 21:52:00,38.0,-1.0,29.72,NNW,328,2.0,13.0,19,0.00,,,0.01,,2013-03-22 03:52:00,
2013-03-21 22:03:00,36.0,0.0,29.74,NNW,340,5.0,15.0,21,0.00,,,0.01,,2013-03-22 04:03:00,
2013-03-21 22:12:00,36.0,0.0,29.74,NNW,340,5.0,15.0,21,0.00,,,0.01,,2013-03-22 04:12:00,
2013-03-21 22:23:00,35.0,1.0,29.74,NNW,334,5.0,14.0,23,0.00,,,0.01,,2013-03-22 04:23:00,
2013-03-21 22:32:00,34.0,1.0,29.75,NNE,13,4.0,7.0,24,0.00,,,0.01,,2013-03-22 04:32:00,
2013-03-21 22:43:00,34.0,1.0,29.75,NNE,13,4.0,7.0,24,0.00,,,0.01,,2013-03-22 04:43:00,
2013-03-21 22:52:00,34.0,1.0,29.75,NNE,13,1.0,7.0,24,0.00,,,0.01,,2013-03-22 04:52:00,
2013-03-21 23:02:00,34.0,4.0,29.75,NNE,18,6.0,8.0,27,0.00,,,0.01,,2013-03-22 05:02:00,
2013-03-21 23:12:00,34.0,4.0,29.75,NNE,18,6.0,8.0,27,0.00,,,0.01,,2013-03-22 05:12:00,
2013-03-21 23:22:00,34.0,4.0,29.75,North,356,0.0,7.0,28,0.00,,,0.01,,2013-03-22 05:22:00,
2013-03-21 23:32:00,32.0,3.0,29.74,North,9,0.0,3.0,29,0.00,,,0.01,,2013-03-22 05:32:00,
2013-03-21 23:42:00,32.0,3.0,29.74,North,9,0.0,3.0,29,0.00,,,0.01,,2013-03-22 05:42:00,
2013-03-21 23:52:00,32.0,5.0,29.76,North,8,0.0,2.0,31,0.00,,,0.01,,2013-03-22 05:52:00,